Flag Weather past 2 weeks in Vilnius, Lithuania

Now
32 °F

Ice fog.


Feels Like: 29 °F
Forecast: 25 / 33 °F
Wind: 3 mph from North

Location: Vilnius Airport

Current Time: Nov 24, 2014 at 12:52:30 AM

Latest Report: Nov 24, 2014 at 12:20 AM


Visibility: 2 mi

Pressure: 30.54 "Hg

Humidity: 93%

Dew point: 30 °F

Location of VilniusLocation

Historic Weather in Vilnius — Graph

°F

Vilnius temperature yesterday

Maximum temperature yesterday: 32 °F (at 12:20 AM)
Minimum temperature yesterday: 32 °F (at 12:20 AM)
Average temperature yesterday: 32 °F

Past Weeks' High & Low Weather Summary

 TemperatureHumidityPressure
High50 °F (Nov 11, 1:20 PM)100% (Nov 9, 4:20 AM)30.54 "Hg (Nov 9, 4:20 AM)
Low27 °F (Nov 19, 3:20 AM)55% (Nov 18, 3:50 PM)30.07 "Hg (Nov 10, 3:20 PM)
Average37 °F88%30.22 "Hg
* Reported Nov 8 11:20 PM — Nov 23 11:20 PM, Vilnius, Weather by CustomWeather, © 2014

Note: Actual official high and low records may vary slightly from our data, if they occured in-between our weather recording intervals... More about our weather records

Advertising

Vilnius weather history for previous 24 hours

 ConditionsComfort  
Time TempWeatherWind HumidityBarometerVisibility
11:20 PM
Nov 23
32 °FIce fog.3 mph93%30.54 "Hg2 mi
10:20 PM32 °FIce fog.5 mph93%30.54 "Hg2 mi
9:50 PM32 °FIce fog.3 mph93%30.54 "Hg2 mi
9:20 PM32 °FIce fog.3 mph93%30.51 "Hg2 mi
8:50 PM32 °FIce fog.6 mph100%30.51 "Hg2 mi
8:20 PM32 °FIce fog.5 mph100%30.54 "Hg2 mi
7:50 PM32 °FIce fog.3 mph100%30.54 "Hg2 mi
7:20 PM32 °FIce fog.3 mph100%30.54 "Hg2 mi
6:50 PM32 °FIce fog.6 mph100%30.51 "Hg2 mi
6:20 PM32 °FIce fog.5 mph100%30.51 "Hg2 mi
5:50 PM32 °FIce fog.5 mph100%30.51 "Hg2 mi
5:20 PM32 °FIce fog.2 mph100%30.51 "Hg1 mi
4:50 PM32 °FIce fog.5 mph100%30.51 "Hg2 mi
4:20 PM32 °FIce fog.5 mph100%30.51 "Hg2 mi
3:50 PM32 °FIce fog.3 mph100%30.48 "Hg1 mi
3:20 PM32 °FIce fog.5 mph100%30.48 "Hg1 mi
2:50 PM32 °FIce fog.3 mph100%30.48 "Hg1 mi
2:20 PM32 °FIce fog.3 mph100%30.48 "Hg1 mi
1:50 PM32 °FIce fog.3 mph100%30.48 "Hg1 mi
1:20 PM32 °FIce fog.3 mph100%30.48 "Hg1 mi
12:50 PM32 °FIce fog.3 mph100%30.48 "Hg1 mi
12:20 PM32 °FIce fog.3 mph100%30.48 "Hg1 mi
11:50 AM32 °FChilly.3 mph100%30.48 "Hg1 mi
11:20 AM32 °FIce fog.3 mph100%30.48 "Hg1 mi
10:50 AM32 °FIce fog.3 mph100%30.48 "Hg1 mi
10:20 AM32 °FIce fog.2 mph100%30.48 "Hg1 mi
9:50 AM32 °FIce fog.1 mph100%30.45 "Hg1 mi
9:20 AM32 °FChilly.2 mph100%30.45 "Hg0 mi
8:50 AM32 °FFog.1 mph100%30.45 "Hg0 mi
8:20 AM32 °FFog.1 mph100%30.42 "Hg0 mi
7:50 AM32 °FFog.1 mph100%30.42 "Hg0 mi
7:20 AM32 °FFog.1 mph100%30.42 "Hg0 mi
6:56 AM32 °FChilly.1 mph100%30.42 "Hg1 mi
6:20 AM32 °FIce fog.1 mph100%30.39 "Hg1 mi
5:50 AM32 °FIce fog.1 mph100%30.39 "Hg1 mi
5:20 AM32 °FDrizzle. Fog.1 mph100%30.39 "Hg1 mi
4:50 AM32 °FDrizzle. Fog.1 mph100%30.39 "Hg0 mi
4:20 AM32 °FDrizzle. Fog.2 mph100%30.39 "Hg0 mi
3:50 AM32 °FFog.2 mph100%30.39 "Hg0 mi
3:20 AM32 °FFog.2 mph100%30.39 "Hg0 mi
2:50 AM32 °FFog.2 mph100%30.39 "Hg0 mi
2:20 AM32 °FFog.2 mph100%30.36 "Hg0 mi
1:50 AM32 °FFog.2 mph100%30.36 "Hg0 mi
1:20 AM32 °FFog.2 mph100%30.36 "Hg0 mi
12:50 AM32 °FFog.2 mph100%30.36 "Hg0 mi
12:20 AM32 °FFog.3 mph100%30.36 "Hg0 mi
Weather by CustomWeather, © 2014

See weather overviewHow to use our weather pages